EW9046 Weather Reports


Display with metric or nautical units.
time (UTC)temp
F
wind
direction
speed
MPH
gust
MPH
rain 1hr
in
rain 24hr
in
rain mn
in
humidity
%
barometer
mb
20260510043111 51 253 0.0 1.0 0.00 0.00 0.00 76 1012.4
20260510041555 51 253 0.0 2.0 0.00 0.00 0.00 76 1012.4
20260510040059 51 253 0.0 1.0 0.00 0.00 0.00 74 1012.3
20260510034557 52 253 0.0 1.0 0.00 0.00 0.00 73 1012.3
20260510033113 52 253 0.0 1.0 0.00 0.00 0.00 72 1012.5
20260510031554 52 253 0.0 1.0 0.00 0.00 0.00 70 1012.4
20260510030055 55 253 0.0 1.0 0.00 0.00 0.00 66 1012.3
20260510024548 56 253 0.0 2.0 0.00 0.00 0.00 65 1012.0
20260510023047 57 252 1.0 2.0 0.00 0.00 0.00 62 1011.6
20260510021546 62 214 1.0 5.0 0.00 0.00 0.00 54 1011.5
20260510020049 63 39 1.0 5.0 0.00 0.00 0.00 51 1011.2
20260510014548 63 276 1.0 3.0 0.00 0.00 0.00 52 1011.0
20260510013044 63 250 1.0 5.0 0.00 0.00 0.00 52 1010.8
20260510011545 61 271 0.0 2.0 0.00 0.00 0.00 53 1010.5
20260510010043 62 228 0.0 4.0 0.00 0.00 0.00 51 1010.3
20260510004543 64 253 0.0 6.0 0.00 0.00 0.00 47 1010.1
20260510003043 67 252 0.0 7.0 0.00 0.00 0.00 43 1009.8
20260510001544 67 248 2.0 5.0 0.00 0.00 0.00 42 1009.4
20260510000059 68 217 3.0 7.0 0.00 0.00 0.00 43 1009.2
20260509234553 68 203 4.0 8.0 0.00 0.00 0.00 44 1009.0
20260509233046 69 277 2.0 9.0 0.00 0.00 0.00 45 1008.9
20260509231543 70 320 2.0 8.0 0.00 0.00 0.00 46 1008.9
20260509230039 72 259 3.0 9.0 0.00 0.00 0.00 50 1008.8
20260509224538 72 238 7.0 11.0 0.00 0.00 0.00 48 1008.7
20260509223041 69 230 5.0 8.0 0.00 0.00 0.00 56 1008.8
20260509221540 70 214 4.0 10.0 0.00 0.00 0.00 55 1008.8
20260509220037 70 254 7.0 12.0 0.00 0.00 0.00 54 1008.6
20260509214536 71 261 6.0 11.0 0.00 0.00 0.00 53 1008.7
20260509213039 72 242 8.0 13.0 0.00 0.00 0.00 53 1008.5
20260509211536 70 257 5.0 9.0 0.00 0.00 0.00 54 1008.5
20260509210040 70 243 7.0 11.0 0.00 0.00 0.00 55 1008.4
20260509204540 70 230 7.0 12.0 0.00 0.00 0.00 54 1008.3
20260509203033 72 244 6.0 15.0 0.00 0.00 0.00 52 1008.2
20260509201536 73 263 6.0 14.0 0.00 0.00 0.00 51 1008.1
20260509200034 72 252 9.0 13.0 0.00 0.00 0.00 52 1008.0
20260509194528 72 231 7.0 15.0 0.00 0.00 0.00 49 1008.3
20260509193028 71 243 6.0 16.0 0.00 0.00 0.00 55 1008.4
20260509191527 70 238 7.0 13.0 0.00 0.00 0.00 54 1008.7
20260509190025 70 276 10.0 18.0 0.00 0.00 0.00 53 1008.9
20260509184534 70 255 8.0 17.0 0.00 0.00 0.00 53 1008.9
20260509183019 69 251 7.0 11.0 0.00 0.00 0.00 54 1009.0
20260509181518 70 243 8.0 14.0 0.00 0.00 0.00 53 1009.1
20260509180017 71 238 8.0 12.0 0.00 0.00 0.00 49 1009.2
20260509174512 69 215 4.0 11.0 0.00 0.00 0.00 54 1009.4
20260509173009 68 249 5.0 11.0 0.00 0.00 0.00 51 1009.8
20260509171508 69 228 7.0 12.0 0.00 0.00 0.00 51 1009.9
20260509170006 68 253 6.0 14.0 0.00 0.00 0.00 53 1010.1
20260509164503 67 203 5.0 11.0 0.00 0.00 0.00 57 1010.1
20260509163002 67 231 6.0 15.0 0.00 0.00 0.00 56 1010.3
20260509161604 66 212 7.0 15.0 0.00 0.00 0.00 58 1010.2
20260509160100 67 238 7.0 12.0 0.00 0.00 0.00 59 1010.2
20260509154558 66 245 9.0 13.0 0.00 0.00 0.00 56 1010.2
20260509153057 67 248 9.0 15.0 0.00 0.00 0.00 58 1010.3
20260509151602 66 220 8.0 12.0 0.00 0.00 0.00 61 1010.5
20260509150053 65 238 9.0 14.0 0.00 0.00 0.00 60 1010.6
20260509144606 64 226 8.0 14.0 0.00 0.00 0.00 62 1010.4
20260509143116 64 264 10.0 16.0 0.00 0.00 0.00 60 1010.5
20260509141548 64 235 8.0 12.0 0.00 0.00 0.00 63 1010.4
20260509140044 61 269 10.0 13.0 0.00 0.00 0.00 65 1010.5
20260509134559 60 220 7.0 12.0 0.00 0.00 0.00 67 1010.9
20260509133042 58 229 8.0 12.0 0.00 0.00 0.00 67 1011.2
20260509131531 58 243 7.0 13.0 0.00 0.00 0.00 67 1011.4
20260509130031 58 243 7.0 11.0 0.00 0.00 0.00 69 1011.4
20260509124527 57 250 7.0 11.0 0.00 0.00 0.00 67 1011.6
20260509123022 57 240 6.0 9.0 0.00 0.00 0.00 68 1011.8
20260509121537 57 255 4.0 10.0 0.00 0.00 0.00 68 1011.6
20260509120015 57 262 6.0 10.0 0.00 0.00 0.00 68 1011.8
20260509114526 56 245 4.0 8.0 0.00 0.00 0.00 68 1011.8
20260509113014 55 248 4.0 7.0 0.00 0.00 0.00 68 1011.7
20260509111504 55 244 4.0 7.0 0.00 0.00 0.00 68 1011.8
20260509110003 54 257 3.0 8.0 0.00 0.00 0.00 67 1011.8
20260509104502 54 253 6.0 9.0 0.00 0.00 0.00 66 1011.5
20260509103106 54 272 6.0 10.0 0.00 0.00 0.00 65 1011.6
20260509103001 54 260 7.0 10.0 0.00 0.00 0.00 65 1011.7
20260509101624 54 271 5.0 9.0 0.00 0.00 0.00 65 1011.7
20260509100100 54 272 4.0 9.0 0.00 0.00 0.00 65 1011.8
20260509094603 54 269 7.0 10.0 0.00 0.00 0.00 64 1011.8
20260509093104 54 268 7.0 10.0 0.00 0.00 0.00 64 1011.9
20260509091552 53 269 6.0 8.0 0.00 0.00 0.00 65 1012.0
20260509090101 53 246 5.0 8.0 0.00 0.00 0.00 63 1012.1
20260509084550 53 277 6.0 10.0 0.00 0.00 0.00 62 1012.1
20260509083050 52 271 6.0 10.0 0.00 0.00 0.00 63 1012.1
20260509081555 53 252 7.0 10.0 0.00 0.00 0.00 62 1012.1
20260509080049 53 261 6.0 9.0 0.00 0.00 0.00 62 1012.2
20260509074549 53 275 7.0 9.0 0.00 0.00 0.00 61 1012.3
20260509073054 53 249 6.0 9.0 0.00 0.00 0.00 62 1012.6
20260509071550 52 259 6.0 8.0 0.00 0.00 0.00 64 1012.8
20260509070046 51 255 5.0 8.0 0.00 0.00 0.00 63 1012.9
20260509064546 53 259 6.0 12.0 0.00 0.00 0.00 60 1012.9
20260509063038 54 262 6.0 14.0 0.00 0.00 0.00 59 1013.2
20260509061536 53 257 6.0 11.0 0.00 0.00 0.00 60 1013.3
20260509060038 53 271 7.0 11.0 0.00 0.00 0.00 60 1013.3
20260509054544 53 272 7.0 11.0 0.00 0.00 0.00 60 1013.4
20260509053033 53 239 5.0 8.0 0.00 0.00 0.00 60 1013.7
20260509051533 53 256 5.0 8.0 0.00 0.00 0.00 60 1013.7
20260509050031 54 254 5.0 11.0 0.00 0.00 0.00 60 1013.7
20260509044526 53 248 5.0 10.0 0.00 0.00 0.00 60 1013.5